Zurück zum Katalog

STARLINK-11179

AktivKommunikationVLEO
NORAD 60190·PAYLOAD·🇺🇸 United States

Gestartet Jul 3, 2024 von Cape Canaveral Space Force Station

Loading…

Nächste Überflüge (nächste 24 Stunden)

TLE

AktuellSource: CelesTrak SupGP

Epoche: Sep 15, 2026, 02:42 UTC

1 60190C 24124H   26258.11298611  .00044026  00000+0  36245-3 0  2587
2 60190  53.1566 307.7212 0001190  96.3482 192.8721 15.69701514    19

Verfolge STARLINK-11179 in Echtzeit mit AllMySat

Download on the App Store